Location: Cork
(51.8990°N, 8.4960°W)
Time: 13:29:01
(UTC+01:00)

Iridium 66 - Visible Passes

Search period start: 23 June 2018 00:00
Search period end: 03 July 2018 00:00
Orbit: 761 x 765 km, 86.4° (Epoch: 22 June)

Date Brightness Start Highest point End Pass type
(mag) Time Alt. Az. Time Alt. Az. Time Alt. Az.
23 Jun 8.4 01:30:40 10° NW 01:33:05 13° WNW 01:35:30 10° W visible
23 Jun 6.2 23:10:33 10° N 23:15:39 57° E 23:20:32 11° SSE visible
24 Jun 7.8 00:51:39 10° NNW 00:55:41 24° WNW 00:59:43 10° SW visible
25 Jun 7.0 00:13:19 10° NNW 00:18:08 41° W 00:22:56 10° SSW visible
25 Jun 6.2 23:35:16 10° N 23:40:25 75° W 23:45:32 10° S visible
26 Jun 8.5 01:17:48 10° NW 01:19:55 13° WNW 01:22:02 10° W visible
26 Jun 6.2 22:57:26 10° N 23:02:33 61° E 23:07:38 10° SSE visible
27 Jun 8.0 00:38:38 10° NNW 00:42:32 22° WNW 00:46:26 10° SW visible
28 Jun 7.2 00:00:15 10° NNW 00:05:00 39° W 00:09:44 10° SSW visible
28 Jun 6.3 23:22:10 10° N 23:27:18 70° W 23:32:25 10° S visible
29 Jun 8.6 01:05:00 10° NW 01:06:45 12° WNW 01:08:30 10° W visible
29 Jun 6.1 22:44:18 10° N 22:49:27 65° E 22:54:34 10° SSE visible
30 Jun 8.1 00:25:37 10° NNW 00:29:23 21° WNW 00:33:09 10° SW visible
30 Jun 7.3 23:47:11 10° NNW 23:51:52 36° W 23:56:32 10° SSW visible
01 Jul 6.4 23:09:04 10° N 23:14:12 66° W 23:19:17 10° S visible
02 Jul 8.7 00:52:18 10° NW 00:53:34 11° WNW 00:54:51 10° W visible
